Powrót do katalogu

CZ-8A R/B

AktywnyLEO
NORAD 68138·ROCKET BODY·🇨🇳 China

Wystrzelony Mar 12, 2026 z Wenchang Space Launch Site

Loading…

Następne Przeloty (najbliższe 24 godziny)

TLE

ŚwieżeSource: Space-Track

Epoka: Sep 14, 2026, 16:34 UTC

1 68138U 26047K   26257.69052188 -.00000049  00000-0  56727-4 0  9991
2 68138  49.9538   9.1802 0044836  67.6360 292.9290 14.12258637 26267

Śledź CZ-8A R/B w czasie rzeczywistym z AllMySat

Download on the App Store